Home > Weather > Bimbo > Past weeks

Flag for Central African Republic Weather for the Past 2 Weeks in Bimbo, Central African Republic

Now
81 °F

Haze.


Feels Like: 80 °F
Forecast: 59 / 101 °F
Wind: 2 mph from North

Location: Bangui Airport

Current Time: Feb 12, 2016 at 11:09:58 AM

Latest Report: Feb 12, 2016 at 10:00 AM


Visibility: 1 mi

Pressure: 29.92 "Hg

Humidity: 32%

Dew point: 48 °F

Location of BimboLocation

Historic Weather in Bimbo — Graph

°F

Bimbo Temperature Yesterday

Maximum temperature yesterday: 99 °F (at 3:00 PM)
Minimum temperature yesterday: 73 °F (at 11:00 PM)
Average temperature yesterday: 85 °F

High & Low Weather Summary for the Past Weeks

 TemperatureHumidityPressure
High102 °F (Feb 5, 2:00 PM)88% (Feb 4, 5:00 AM)30.01 "Hg (Feb 4, 5:00 AM)
Low59 °F (Jan 30, 6:00 AM)10% (Feb 11, 3:00 PM)29.71 "Hg (Feb 5, 3:00 PM)
Average80 °F46%29.86 "Hg
* Reported Jan 28 10:00 AM — Feb 12 10:00 AM, Bimbo, Weather by CustomWeather, © 2016

Note: Actual official high and low records may vary slightly from our data, if they occured in-between our weather recording intervals... More about our weather records

Advertising

Bimbo Weather History for the Previous 24 Hours

 ConditionsComfort  
Time TempWeatherWind HumidityBarometerVisibility
10:00 AM
Fri, Feb 12
81 °FHaze.2 mph32%29.92 "Hg1 mi
9:00 AM73 °FHaze.3 mph44%29.92 "Hg1 mi
8:00 AM70 °FHaze.3 mph53%29.92 "Hg1 mi
7:00 AM64 °FSunny.3 mph64%29.92 "Hg1 mi
6:00 AM66 °FFog.1 mph64%29.86 "Hg2 mi
5:00 AM66 °FClear.2 mph60%29.86 "Hg4 mi
4:00 AM68 °FClear.3 mph56%29.86 "Hg4 mi
3:00 AM70 °FClear.3 mph50%29.83 "Hg4 mi
2:00 AM70 °FClear.2 mph53%29.83 "Hg4 mi
1:00 AM72 °FClear.No wind47%29.83 "Hg10 mi
12:00 AM72 °FClear.5 mph44%29.86 "Hg10 mi
11:00 PM
Thu, Feb 11
73 °FClear.3 mph44%29.86 "Hg10 mi
10:00 PM75 °FClear.5 mph44%29.83 "Hg5 mi
9:00 PM75 °FHaze.1 mph47%29.83 "Hg2 mi
8:00 PM77 °FHaze.No wind44%29.80 "Hg1 mi
7:00 PM81 °FHaze.No wind37%29.80 "Hg1 mi
6:00 PM90 °FHaze.2 mph22%29.77 "Hg1 mi
5:00 PM97 °FClear.5 mph13%29.74 "Hg5 mi
4:00 PM99 °FSunny.5 mph11%29.74 "Hg10 mi
3:00 PM99 °FPassing clouds.5 mph10%29.74 "HgN/A
Weather by CustomWeather, © 2016

See weather overviewHow to use our weather pages